Regional Weather Roundup
Issued by NWS

Home | Current Version | Previous Version | Text Only | Print | Product List | Glossary On
Versions: 1 2 3 4 5 6 7 8 9 10 11 12 13 14 15 16 17 18 19 20 21 22 23 24 25 26 27 28 29 30 31 32 33 34 35 36 37 38 39 40 41 42 43 44 45 46 47 48 49 50
000
ASUS43 KLMK 290102
RWRKY
KENTUCKY REGIONAL WEATHER ROUNDUP
NATIONAL WEATHER SERVICE LOUISVILLE KY
900 PM EDT TUE JUL 28 2015

NOTE "FAIR" INDICATES FEW OR NO CLOUDS BELOW 12,000 FEET
WITH NO SIGNIFICANT WEATHER AND/OR OBSTRUCTIONS TO VISIBILITY.

KYZ001>023-026-027-061>063-070>075-290200-
WESTERN AND SOUTH CENTRAL KENTUCKY

CITY           SKY/WX    TMP DP  RH WIND       PRES   REMARKS
PADUCAH        MOCLDY    83  71  67 NE23G33   30.00R
HENDERSON      CLOUDY    75  72  88 CALM      29.93R
OWENSBORO      CLOUDY    78  76  94 SW6       29.94F
HOPKINSVILLE   TSTM      76  74  91 W8        30.02R
BOWLING GREEN  MOCLDY    77  72  84 W5        29.99R
GLASGOW        NOT AVBL
$$

KYZ024-025-028>034-038-045-046-053-290200-
NORTH CENTRAL KENTUCKY

CITY           SKY/WX    TMP DP  RH WIND       PRES   REMARKS
LOUISVILLE/SDF PTCLDY    85  70  60 S10       29.92S
LOUISVILLE/LOU CLEAR     86  71  60 S7        29.94R HX  91
FORT KNOX      PTCLDY    80  72  76 S13       29.94S
$$

KYZ035>037-039>044-047>052-055>060-089>105-290200-
NORTHEAST KENTUCKY

CITY           SKY/WX    TMP DP  RH WIND       PRES   REMARKS
LEXINGTON      PTCLDY    77  73  87 S6        29.98R
COVINGTON      MOCLDY    86  69  56 CALM      29.94S HX  90
FRANKFORT      PTCLDY    80  73  79 SW7       29.95R
$$

KYZ054-064>069-076>088-106>120-290200-
SOUTHEAST KENTUCKY

CITY           SKY/WX    TMP DP  RH WIND       PRES   REMARKS
JACKSON        CLEAR     78  74  87 CALM      29.99S
LONDON         CLOUDY    80  68  66 NW10G20   30.01R
SOMERSET       NOT AVBL
MIDDLESBORO    PTCLDY    76  74  92 CALM      30.00S
MONTICELLO     MOCLDY    77  72  84 CALM      30.04R
$$




USA.gov is the U.S. government's official web portal to all federal, state and local government web resources and services.